User: anonymous   Login
Location: Chervonnoye
(48.6000°N, 34.4000°E)
Time: 07:24:08
(UTC+00:00)
Language:

deb NNS O-6 - Orbit

View from above orbital plane
View from above orbital plane
View from above satellite
View from above satellite

Ground track
Ground track

The orbit data is extracted from the following two-line orbital elements,

1 24705U 65109E   21171.54653233  .00000800  00000-0  50837-3 0  9996
2 24705  89.0670  28.6740 0087253  90.4245 337.2194 14.00951360244789
Epoch (UTC): 20 June 2021 13:07:00
Eccentricity: 0.0087253
inclination: 89.0670°
perigee height: 827 km
apogee height: 954 km
right ascension of ascending node: 28.6740°
argument of perigee: 90.4245°
revolutions per day: 14.00951360
mean anomaly at epoch: 337.2194°
orbit number at epoch: 24478

The dashed part of the orbit path shows where the satellite is in the earth's shadow,  

DLR